Rochester/St. Mary\'s Hospita, MN

8:35 AM CDT on June 19, 2018 (GMT -0500)
Rochester/St. Mary\'s Hospita

Weather History for K9MN - October, 2017

Change the Weather History Date:

Saturday, October 28, 2017

  Actual Average (KRST) Record (KRST)
Temperature  
Mean Temperature 30 °F -  
Max Temperature 32 °F 51 °F 72 °F (1945)
Min Temperature 28 °F 32 °F 11 °F (1909)
Degree Days  
Heating Degree Days 35    
Moisture  
Dew Point 26 °F    
Average Humidity 80    
Maximum Humidity 97    
Minimum Humidity 74    
Precipitation  
Precipitation 0.00 in - - ()
Sea Level Pressure  
Sea Level Pressure 29.94 in    
Wind  
Wind Speed 11 mph (WNW)    
Max Wind Speed 22 mph    
Max Gust Speed 32 mph    
Visibility 10 miles    
Events      
Averages and records for this station are not official NWS values.
T = Trace of Precipitation, MM = Missing Value Source: NWS Daily Summary

Daily Weather History Graph

Daily Weather History Graph

Search for Another Location

Airport or City:

Astronomy

Oct. 28, 2017 Rise Set
Actual Time 7:41 AM CDT 6:05 PM CDT
Civil Twilight 7:11 AM CDT 6:34 PM CDT
Nautical Twilight 6:37 AM CDT 7:08 PM CDT
Astronomical Twilight 6:04 AM CDT 7:42 PM CDT
Moon 2:56 PM CDT (10/28) 12:14 AM CDT (10/28)
Length of Visible Light 11h 23m
Length of Day
10h 23m
First Quarter, 58% of the Moon is Illuminated
Oct 28
First Quarter
Nov 4
Full
Nov 10
Last Quarter
Nov 18
New
Nov 26
First Quarter

Hourly Weather History & Observations

Time (CDT) Temp. Windchill Dew Point Humidity Pressure Visibility Wind Dir Wind Speed Gust Speed Precip Events Conditions
12:12 AM 31.8 °F 21.8 °F 31.1 °F 97% 29.89 in 10.0 mi NW 13.8 mph 23.0 mph N/A   Overcast
12:32 AM 31.8 °F 22.3 °F 30.7 °F 96% 29.89 in 10.0 mi NW 12.7 mph 24.2 mph N/A   Overcast
12:51 AM 31.5 °F 21.4 °F 30.0 °F 94% 29.89 in 10.0 mi NW 13.8 mph 26.5 mph N/A   Overcast
1:12 AM 31.5 °F 21.4 °F 29.7 °F 93% 29.90 in 10.0 mi NW 13.8 mph 21.9 mph N/A   Overcast
1:32 AM 31.5 °F 22.3 °F 29.1 °F 91% 29.90 in 10.0 mi WNW 11.5 mph 20.7 mph N/A   Overcast
1:51 AM 31.5 °F 22.3 °F 28.2 °F 88% 29.90 in 10.0 mi NW 11.5 mph 26.5 mph N/A   Overcast
2:12 AM 31.5 °F 22.3 °F 27.9 °F 87% 29.90 in 10.0 mi NW 11.5 mph 24.2 mph N/A   Overcast
2:32 AM 31.1 °F 22.4 °F 27.1 °F 85% 29.90 in 10.0 mi NW 10.4 mph 21.9 mph N/A   Overcast
2:52 AM 31.1 °F 20.5 °F 26.8 °F 84% 29.90 in 10.0 mi NW 15.0 mph 23.0 mph N/A   Overcast
3:12 AM 30.9 °F 21.2 °F 26.1 °F 82% 29.90 in 10.0 mi NW 12.7 mph 28.8 mph N/A   Overcast
3:32 AM 30.9 °F 20.2 °F 25.5 °F 80% 29.91 in 10.0 mi NW 15.0 mph 25.3 mph N/A   Overcast
3:52 AM 30.6 °F 17.6 °F 25.3 °F 81% 29.90 in 10.0 mi NW 21.9 mph 29.9 mph N/A   Overcast
4:12 AM 30.2 °F 18.5 °F 24.8 °F 80% 29.91 in 10.0 mi NW 17.3 mph 27.6 mph N/A   Overcast
4:32 AM 30.2 °F 19.8 °F 24.4 °F 79% 29.91 in 10.0 mi NW 13.8 mph 32.2 mph N/A   Overcast
4:52 AM 30.6 °F 20.7 °F 25.3 °F 81% 29.92 in 10.0 mi NW 12.7 mph 19.6 mph N/A   Overcast
5:12 AM 30.6 °F 20.7 °F 25.9 °F 83% 29.92 in 10.0 mi NW 12.7 mph 18.4 mph N/A   Overcast
5:32 AM 30.2 °F 21.3 °F 25.0 °F 81% 29.93 in 10.0 mi NW 10.4 mph 23.0 mph N/A   Overcast
5:52 AM 30.2 °F 20.8 °F 25.3 °F 82% 29.93 in 10.0 mi NW 11.5 mph 19.6 mph N/A   Overcast
6:12 AM 30.0 °F 20.5 °F 25.3 °F 83% 29.94 in 10.0 mi NW 11.5 mph 24.2 mph N/A   Overcast
6:31 AM 29.7 °F 19.1 °F 25.3 °F 84% 29.94 in 10.0 mi NW 13.8 mph 26.5 mph N/A   Overcast
6:52 AM 29.7 °F 18.6 °F 25.2 °F 83% 29.94 in 10.0 mi NW 15.0 mph 24.2 mph N/A   Overcast
7:12 AM 29.7 °F 18.6 °F 25.2 °F 83% 29.94 in 10.0 mi NW 15.0 mph 24.2 mph N/A   Overcast
7:31 AM 29.7 °F 20.1 °F 25.2 °F 83% 29.95 in 10.0 mi NW 11.5 mph 24.2 mph N/A   Overcast
7:52 AM 29.8 °F 19.8 °F 25.3 °F 83% 29.95 in 10.0 mi NW 12.7 mph 18.4 mph N/A   Overcast
8:12 AM 30.0 °F 19.5 °F 25.3 °F 83% 29.96 in 10.0 mi WNW 13.8 mph 20.7 mph N/A   Overcast
8:31 AM 30.2 °F 19.8 °F 25.9 °F 84% 29.97 in 10.0 mi WNW 13.8 mph 19.6 mph N/A   Overcast
8:52 AM 30.2 °F 20.8 °F 25.3 °F 82% 29.97 in 10.0 mi WNW 11.5 mph 19.6 mph N/A   Overcast
9:12 AM 30.4 °F 22.2 °F 25.5 °F 82% 29.97 in 10.0 mi WNW 9.2 mph 18.4 mph N/A   Overcast
9:31 AM 30.2 °F 20.8 °F 24.6 °F 80% 29.97 in 10.0 mi NW 11.5 mph 17.3 mph N/A   Overcast
9:52 AM 30.7 °F 24.9 °F 24.8 °F 79% 29.98 in 10.0 mi WNW 5.8 mph - N/A   Overcast
10:12 AM 30.7 °F 22.6 °F 24.8 °F 79% 29.98 in 10.0 mi WNW 9.2 mph 17.3 mph N/A   Overcast
10:31 AM 31.1 °F 21.9 °F 25.0 °F 78% 29.97 in 10.0 mi NW 11.5 mph 18.4 mph N/A   Overcast
10:52 AM 31.6 °F 24.4 °F 25.7 °F 79% 29.98 in 10.0 mi WNW 8.1 mph - N/A   Overcast
11:12 AM 31.1 °F 21.9 °F 24.8 °F 77% 29.98 in 10.0 mi WNW 11.5 mph 20.7 mph N/A   Overcast
11:32 AM 31.1 °F 22.4 °F 24.1 °F 75% 29.98 in 10.0 mi NW 10.4 mph 19.6 mph N/A   Overcast
11:52 AM 31.1 °F 22.4 °F 24.4 °F 76% 29.98 in 10.0 mi WNW 10.4 mph 19.6 mph N/A   Overcast
12:12 PM 31.8 °F 24.6 °F 25.0 °F 76% 29.97 in 10.0 mi NW 8.1 mph 18.4 mph N/A   Overcast
12:32 PM 32.0 °F 25.6 °F 25.7 °F 78% 29.97 in 10.0 mi NNW 6.9 mph - N/A   Overcast
12:52 PM 32.0 °F 24.2 °F 25.7 °F 78% 29.97 in 10.0 mi NW 9.2 mph - N/A   Overcast
1:12 PM 32.0 °F 24.8 °F 25.3 °F 76% 29.95 in 10.0 mi WNW 8.1 mph 16.1 mph N/A   Overcast
1:32 PM 32.4 °F 23.0 °F 26.2 °F 78% 29.95 in 10.0 mi WNW 12.7 mph 17.3 mph N/A   Overcast
1:52 PM 32.0 °F 23.0 °F 25.5 °F 77% 29.95 in 10.0 mi WNW 11.5 mph 18.4 mph N/A   Overcast
2:11 PM 32.0 °F 24.2 °F 26.4 °F 80% 29.95 in 10.0 mi WNW 9.2 mph 16.1 mph N/A   Overcast
2:32 PM 32.0 °F 23.0 °F 26.1 °F 79% 29.95 in 10.0 mi WNW 11.5 mph 16.1 mph N/A   Overcast
2:52 PM 32.0 °F 24.2 °F 26.1 °F 79% 29.94 in 10.0 mi WNW 9.2 mph - N/A   Overcast
3:12 PM 32.0 °F 23.0 °F 26.1 °F 79% 29.94 in 10.0 mi WNW 11.5 mph - N/A   Overcast
3:32 PM 32.9 °F 27.5 °F 26.4 °F 77% 29.94 in 10.0 mi WNW 5.8 mph - N/A   Overcast
3:52 PM 32.2 °F 25.0 °F 25.7 °F 77% 29.94 in 10.0 mi WNW 8.1 mph - N/A   Overcast
4:12 PM 32.0 °F 24.8 °F 25.7 °F 78% 29.94 in 10.0 mi West 8.1 mph 16.1 mph N/A   Overcast
4:32 PM 32.4 °F 24.6 °F 25.9 °F 77% 29.94 in 10.0 mi West 9.2 mph - N/A   Overcast
4:52 PM 32.2 °F 27.7 °F 25.7 °F 77% 29.94 in 10.0 mi WNW 4.6 mph - N/A   Overcast
5:12 PM 32.2 °F 24.4 °F 25.5 °F 76% 29.94 in 10.0 mi West 9.2 mph - N/A   Overcast
5:32 PM 32.2 °F 24.4 °F 25.7 °F 77% 29.94 in 10.0 mi WNW 9.2 mph - N/A   Overcast
5:52 PM 32.0 °F 28.7 °F 25.5 °F 77% 29.95 in 10.0 mi NW 3.5 mph - N/A   Overcast
6:12 PM 32.4 °F 29.1 °F 26.1 °F 78% 29.95 in 10.0 mi NW 3.5 mph - N/A   Overcast
6:32 PM 32.0 °F 27.5 °F 25.5 °F 77% 29.96 in 10.0 mi WSW 4.6 mph - N/A   Overcast
6:52 PM 32.5 °F 26.2 °F 25.7 °F 76% 29.96 in 10.0 mi West 6.9 mph - N/A   Overcast
7:12 PM 32.0 °F - 24.6 °F 74% 29.96 in 10.0 mi Calm Calm - N/A   Overcast
7:32 PM 32.0 °F 28.7 °F 24.8 °F 75% 29.96 in 10.0 mi WNW 3.5 mph - N/A   Overcast
7:51 PM 32.0 °F - 24.4 °F 74% 29.96 in 10.0 mi Calm Calm - N/A   Overcast
8:12 PM 32.4 °F 27.9 °F 25.9 °F 77% 29.96 in 10.0 mi WSW 4.6 mph - N/A   Overcast
8:32 PM 32.2 °F 27.7 °F 25.5 °F 76% 29.95 in 10.0 mi West 4.6 mph - N/A   Overcast
8:51 PM 32.0 °F 28.7 °F 25.2 °F 76% 29.94 in 10.0 mi SW 3.5 mph - N/A   Mostly Cloudy
9:12 PM 31.6 °F 28.3 °F 24.3 °F 74% 29.94 in 10.0 mi South 3.5 mph - N/A   Clear
9:32 PM 30.9 °F 27.5 °F 24.1 °F 76% 29.94 in 10.0 mi South 3.5 mph - N/A   Clear
9:51 PM 30.6 °F 25.8 °F 23.7 °F 76% 29.93 in 10.0 mi South 4.6 mph - N/A   Clear
10:12 PM 29.8 °F 24.9 °F 24.3 °F 80% 29.93 in 10.0 mi South 4.6 mph - N/A   Clear
10:32 PM 29.1 °F 22.1 °F 23.9 °F 81% 29.92 in 10.0 mi SSE 6.9 mph - N/A   Clear
10:51 PM 29.1 °F 23.0 °F 23.9 °F 81% 29.92 in 10.0 mi SSE 5.8 mph - N/A   Clear
11:12 PM 28.4 °F 23.3 °F 23.7 °F 83% 29.90 in 10.0 mi SE 4.6 mph - N/A   Clear
11:32 PM 28.4 °F 22.2 °F 23.5 °F 82% 29.90 in 10.0 mi SE 5.8 mph - N/A   Clear
11:51 PM 28.0 °F 21.7 °F 23.7 °F 84% 29.90 in 10.0 mi SE 5.8 mph - N/A   Clear